Probability
0 0 0 0 0 0 0 0 1 1 1 0 0 0 0 1 8 19 17 14 12 6 2 4 6 3 1 1 1 0 0 0 0 1 0 0 0 0 0 0 0 0 0 0 0 0 0 0 0
0 0 0 0 0 0 0 0 1 1 0 0 0 0 0 0 4 7 7 6 5 2 1 2 4 3 1 0 0 0 0 0 0 1 0 0 0 0 0 0 0 0 0 0 0 0 0 0 0
0 0 0 0 0 0 0 0 0 0 0 0 0 0 0 0 0 0 0 0 1 2 3 2 3 4 1 0 0 0 0 0 0 0 0 0 0 0 0 0 0 0 0 0 0 0 0 0 0
0 0 0 0 0 0 0 0 0 0 0 0 0 0 0 0 1 1 0 0 1 4 5 4 3 3 1 0 0 0 0 0 0 0 0 0 0 0 0 0 0 0 0 0 0 0 0 0 0
0 0 0 0 0 0 0 0 0 0 0 0 0 0 0 1 2 1 0 0 1 3 4 3 1 1 0 0 0 0 0 0 0 0 0 0 0 0 0 0 0 0 0 0 0 0 0 0 0
0 0 0 0 0 0 0 0 0 0 0 0 0 0 1 2 2 0 0 0 0 1 2 1 0 0 0 0 0 0 0 0 0 0 0 0 0 0 0 0 0 0 0 0 0 0 0 0 0
0 0 0 0 0 0 0 0 0 0 0 0 0 0 7 14 9 2 0 0 0 1 1 1 0 0 0 0 0 0 0 0 0 0 0 0 0 0 0 0 0 0 0 0 0 0 0 0 0
0 0 0 0 0 0 0 0 0 0 0 0 0 1 14 28 20 5 1 0 0 1 3 4 3 1 0 0 0 0 0 0 0 0 0 0 0 0 0 0 0 0 0 0 0 0 0 0 0
0 0 0 0 0 0 0 0 0 0 0 0 0 4 19 29 22 10 7 8 6 4 8 12 9 3 0 0 0 0 0 0 0 0 0 0 0 0 0 0 0 0 0 0 0 0 0 0 0
0 0 0 0 0 0 0 0 0 0 0 0 4 13 23 25 20 14 18 29 30 20 14 17 16 7 2 0 0 0 0 0 0 0 0 0 0 0 0 0 0 0 0 0 0 0 0 0 0
0 0 0 0 0 0 0 0 0 0 0 1 10 24 28 24 19 14 22 47 60 41 19 17 21 14 5 1 0 0 1 0 0 1 1 0 0 0 0 1 1 1 0 0 0 0 0 0 0
0 0 0 0 0 0 0 0 0 0 0 1 13 30 31 23 16 11 20 49 70 51 21 18 31 30 21 11 5 5 9 8 7 6 2 0 0 0 1 4 4 2 1 1 1 0 0 0 0
0 0 0 0 0 0 0 0 0 0 0 1 12 31 34 21 11 13 29 56 69 51 22 19 42 57 53 38 24 23 28 23 17 8 2 0 1 7 15 19 15 8 7 12 14 9 5 4 3
0 0 0 0 0 0 0 0 0 0 0 0 10 30 39 24 12 25 54 76 80 64 41 34 54 79 79 57 43 40 34 32 26 24 24 20 16 21 36 46 43 34 29 35 37 26 14 9 5
0 0 0 0 0 0 0 0 0 0 0 1 7 24 40 33 26 45 77 93 93 86 74 61 65 84 82 59 48 40 35 43 53 63 68 61 47 42 54 69 74 68 56 52 48 34 19 11 7
0 0 0 0 0 0 0 0 0 0 0 1 5 16 34 44 47 67 91 99 99 98 93 79 74 86 82 68 62 56 59 73 85 92 92 83 66 56 65 75 78 73 58 46 37 24 14 9 7
0 0 0 0 0 0 0 0 0 0 0 1 4 10 28 50 67 85 98 100 100 100 96 87 86 91 91 88 87 87 89 94 94 90 84 73 54 47 56 58 52 46 36 26 16 9 5 4 4
0 0 0 0 0 0 0 0 0 0 0 1 3 7 24 52 79 94 100 100 100 100 99 97 97 98 98 98 99 99 96 90 81 73 66 52 32 24 29 29 22 16 13 9 3 1 0 0 1
0 0 0 0 0 0 0 0 0 0 0 1 2 5 21 54 85 98 100 99 98 99 100 100 100 100 100 100 100 99 93 79 62 49 39 26 14 8 10 8 4 2 2 2 1 0 0 0 0
0 0 0 0 0 0 0 0 0 0 0 0 1 3 17 52 86 100 100 99 98 99 100 100 100 100 100 100 100 97 85 63 38 23 14 8 3 2 1 1 0 0 0 0 0 0 0 0 0
0 0 0 0 0 0 0 0 0 0 0 0 0 1 10 40 78 98 100 100 99 100 100 100 100 100 100 100 99 91 73 47 23 10 5 2 0 0 0 0 0 0 0 0 0 0 0 0 0
0 0 0 0 0 0 0 0 0 0 0 0 0 0 4 25 64 92 100 100 100 100 100 100 100 100 99 99 97 89 70 45 23 9 3 1 0 0 0 0 0 0 0 0 0 0 0 0 0
0 0 0 0 0 0 0 0 0 0 0 0 0 0 2 21 58 90 100 100 100 100 100 100 100 99 98 96 94 87 69 43 20 6 1 0 0 0 0 0 0 0 0 0 0 0 0 0 0
0 0 0 0 0 0 0 0 0 0 0 0 2 5 12 34 70 94 100 99 99 99 98 97 95 91 85 77 72 64 47 26 9 2 0 0 0 0 0 0 0 0 0 0 0 0 0 0 0
0 0 0 0 0 0 0 0 0 0 0 2 11 26 41 64 87 98 99 98 97 94 90 83 73 63 52 41 35 28 18 8 2 0 0 0 0 0 0 0 0 0 0 0 0 0 0 0 0
0 0 0 0 0 0 0 0 0 0 1 6 28 57 78 90 96 96 91 85 81 76 67 55 40 27 18 12 9 7 4 1 0 0 0 0 0 0 0 0 0 0 0 0 0 0 0 0 0
0 0 0 0 0 0 0 0 0 0 1 13 44 76 87 82 78 73 63 52 47 42 34 23 13 6 3 2 2 2 1 0 0 0 0 0 0 0 0 0 0 0 0 0 0 0 0 0 0
0 0 0 0 0 0 0 0 0 0 2 20 55 75 62 45 38 32 25 17 14 12 9 5 2 1 0 0 0 0 0 0 0 0 0 0 0 0 0 0 0 0 0 0 0 0 0 0 0
0 0 0 0 0 0 0 0 1 1 4 25 61 69 42 17 9 6 3 2 1 1 1 1 0 0 0 0 0 0 0 0 0 0 0 0 0 0 0 0 0 0 0 0 0 0 0 0 0
0 0 0 0 0 0 0 1 2 2 5 26 61 71 41 12 3 1 0 0 0 0 0 0 0 0 0 0 0 0 0 0 0 0 0 0 0 0 0 0 0 0 0 0 0 0 0 0 0
Wind_Speed
8 12 11 9 8 10 17 20 2 15 11 13 13 13 19 18 13 11 8 13 20 18 16 15 14 13 12 12 12 12 12 13 12 12 12 12 11 10 8 8 8 8 8 8 9 10 9 8 7
10 12 9 7 10 14 17 10 16 19 7 6 12 15 18 16 15 12 10 11 18 17 15 14 15 13 12 12 12 12 12 13 13 12 12 11 11 10 8 8 8 7 8 7 9 9 8 7 6
13 13 7 8 15 16 13 8 20 18 13 8 13 16 16 11 13 11 12 11 15 15 15 16 15 14 12 11 12 13 13 13 13 12 12 11 10 9 8 8 8 8 9 8 9 9 8 6 5
8 9 8 11 19 21 5 9 15 15 11 10 12 13 15 10 12 14 14 13 15 16 16 16 16 14 12 12 11 12 13 13 12 11 11 10 9 8 7 7 8 9 9 9 9 9 7 6 5
10 8 12 15 19 13 6 8 9 12 10 10 12 18 13 14 19 16 13 14 13 15 17 15 15 14 13 12 11 11 11 11 11 10 9 8 7 6 6 7 9 9 9 9 9 8 7 5 4
9 9 13 15 17 4 6 9 9 10 9 11 12 17 13 14 17 15 13 11 12 15 17 14 14 14 13 12 11 10 9 9 9 8 7 6 5 5 6 7 8 8 8 8 8 6 5 3 1
11 12 16 19 11 5 7 8 7 7 7 9 11 16 14 15 15 14 13 11 12 16 17 13 13 12 12 12 12 10 9 8 8 7 7 6 6 6 6 6 7 8 8 7 6 5 3 2 2
12 12 18 18 9 6 8 10 8 6 4 4 7 9 17 17 16 14 14 11 11 13 16 14 13 12 11 11 12 11 10 9 9 8 8 7 7 7 7 8 8 9 8 7 6 4 4 4 5
16 13 16 18 7 4 8 9 12 16 6 15 2 11 23 22 19 15 15 12 10 12 13 13 13 12 12 11 11 11 11 10 10 9 9 7 6 7 7 8 10 9 9 8 7 7 7 7 8
15 14 19 14 4 1 5 8 12 17 19 15 6 17 23 21 19 16 16 16 14 12 12 14 14 13 11 11 10 9 9 9 9 7 8 6 3 4 7 10 11 11 11 10 10 10 9 9 6
18 20 19 12 6 7 9 6 10 13 15 14 10 15 16 20 19 16 16 16 16 14 12 14 14 12 11 9 10 8 7 8 8 8 7 6 6 6 5 5 7 8 9 8 8 8 7 3 1
20 20 18 14 7 5 12 14 9 12 8 6 12 15 8 15 18 16 15 15 17 15 12 14 12 10 10 7 7 7 7 7 5 5 5 4 3 3 5 5 7 6 5 5 5 4 4 2 2
18 18 17 14 11 10 15 16 12 11 7 4 14 24 21 18 17 15 14 15 15 12 9 9 9 8 5 4 2 4 6 7 8 5 4 3 1 1 2 2 2 3 3 2 3 5 5 3 3
17 18 17 16 15 14 16 15 16 11 10 10 10 20 22 18 16 15 16 16 14 10 7 7 7 9 7 4 1 4 5 4 7 5 5 3 4 4 4 4 5 5 4 4 4 5 4 3 4
19 18 16 15 16 16 18 17 18 14 11 11 9 12 18 15 13 15 16 16 15 11 8 7 7 10 7 6 5 3 4 5 4 6 6 6 5 3 3 3 4 3 3 5 5 6 4 4 5
17 18 18 16 18 20 21 19 17 13 12 9 9 10 12 12 15 16 17 14 14 12 9 8 10 12 8 6 5 3 5 6 6 6 6 7 6 4 4 6 5 4 4 5 5 5 5 5 5
17 17 19 21 22 22 23 20 16 15 9 9 9 10 12 12 13 16 19 16 13 11 9 9 9 13 10 7 5 6 7 7 7 6 6 6 6 5 6 6 4 4 5 5 5 5 4 5 5
16 19 21 22 21 22 24 19 14 13 9 10 11 10 10 13 13 17 18 16 12 9 7 7 9 12 11 8 6 6 7 7 7 7 6 6 7 7 5 7 6 5 4 3 2 1 2 3 4
20 22 21 18 18 20 20 17 13 13 11 13 12 12 11 12 14 19 18 16 13 9 6 6 8 10 9 8 8 7 7 7 7 7 9 8 8 7 6 5 4 3 3 2 2 2 4 4 3
21 21 20 17 15 13 11 13 13 14 16 13 14 13 11 11 15 20 18 15 13 11 8 6 7 9 9 7 6 6 7 7 8 7 6 7 6 5 6 4 2 4 1 1 1 3 2 4 4
17 17 16 16 17 17 18 17 14 14 20 20 15 16 16 11 18 22 19 16 14 12 9 7 7 7 7 10 8 8 7 8 7 7 5 5 5 6 5 4 4 4 3 4 3 4 4 3 5
13 13 14 16 16 15 17 17 16 18 22 22 21 19 17 15 15 21 19 15 12 11 8 7 7 7 8 9 11 11 8 7 7 6 5 5 5 5 5 4 4 4 3 4 4 7 3 4 4
14 13 14 15 15 16 16 18 17 17 18 16 17 18 17 16 14 18 18 14 11 10 9 8 8 8 7 7 8 7 7 7 5 6 5 4 6 4 4 5 4 2 2 5 4 3 2 3 4
12 13 13 13 13 16 17 19 19 16 18 16 16 13 14 14 15 18 17 14 11 9 10 10 9 8 7 8 7 8 8 7 7 5 5 3 5 5 5 5 2 1 3 3 2 2 2 1 1
12 10 10 12 13 17 19 20 17 16 16 12 6 2 1 14 20 19 17 15 11 10 10 10 10 9 8 8 8 8 7 6 6 4 4 0 3 7 4 5 2 2 2 1 1 1 2 3 2
13 13 12 12 12 12 12 11 10 7 3 1 5 14 19 19 18 17 16 14 12 11 11 11 11 10 8 8 7 6 4 4 6 4 3 3 4 6 4 3 2 0 1 1 3 2 4 2 2
15 14 15 14 16 15 14 17 15 9 8 7 7 17 18 17 17 16 15 14 13 11 10 11 11 10 8 8 6 5 6 8 8 4 2 4 3 3 4 2 1 1 2 2 2 4 4 4 5
16 14 11 13 12 14 15 15 10 10 6 5 11 17 15 15 16 15 14 14 11 9 8 10 10 9 9 7 5 6 6 6 4 4 6 4 4 4 1 1 1 2 3 3 4 4 5 5 5
15 17 15 11 11 12 13 9 4 5 5 6 13 14 12 14 14 13 13 12 10 9 9 10 11 10 7 7 6 6 5 4 3 3 4 3 2 1 1 2 3 3 4 5 5 5 6 6 6
14 15 14 12 14 14 14 12 6 7 9 4 12 17 14 12 12 12 12 11 9 10 10 10 9 9 7 7 6 5 4 3 3 4 4 3 2 1 2 3 4 5 6 5 5 5 6 6 7
Wind_Direction
238 254 254 265 251 245 254 258 110 79 58 65 61 65 61 47 51 94 96 93 103 109 117 118 111 109 108 107 108 109 112 114 115 116 115 116 115 111 106 98 93 95 101 108 112 109 104 98 91
255 247 254 251 251 249 253 236 92 89 86 112 88 73 71 67 80 103 115 115 114 119 130 124 118 112 111 109 111 111 112 112 112 113 115 117 117 114 110 104 101 100 98 101 110 114 113 108 102
257 256 255 243 246 255 283 103 107 120 174 143 91 71 68 80 93 111 125 134 115 115 116 125 128 125 124 121 120 120 120 120 120 121 121 119 116 114 112 110 107 103 104 112 119 120 116 110 104
240 223 234 244 248 243 259 92 119 142 162 120 104 91 84 89 102 115 138 137 120 121 122 131 134 133 132 131 131 131 131 130 128 126 125 125 126 125 124 120 113 109 113 117 113 108 106 102 91
237 245 239 249 250 247 136 121 147 147 139 130 114 108 100 90 102 122 137 131 131 130 124 133 137 139 143 147 147 144 142 140 135 133 132 135 138 137 130 122 118 116 115 111 106 103 100 94 82
234 239 246 248 247 198 150 151 158 146 147 144 130 118 119 122 123 135 129 139 136 126 120 130 141 147 153 158 157 154 153 148 139 137 138 145 148 139 126 120 119 118 117 114 111 108 107 102 76
250 255 261 266 263 174 162 147 141 158 162 158 149 122 126 137 132 133 132 139 128 124 126 139 145 155 162 167 167 163 160 153 144 143 151 161 163 155 142 130 120 117 118 120 120 123 138 169 218
250 269 274 273 257 177 159 144 145 84 320 233 167 127 139 140 138 136 136 129 127 130 135 142 152 154 161 166 167 166 165 160 156 161 172 174 171 168 159 149 133 134 138 140 143 159 193 216 234
244 255 267 274 260 181 165 167 155 139 191 271 141 110 140 143 143 147 139 137 138 130 135 140 147 153 158 156 156 164 169 170 168 176 185 186 189 171 173 156 149 157 163 166 175 194 213 223 231
234 247 254 279 311 231 182 192 177 172 169 225 152 116 134 146 149 156 151 152 149 141 146 149 155 162 161 152 153 167 174 172 187 181 181 191 186 182 174 155 170 178 181 182 203 213 226 228 223
228 242 265 300 310 327 307 245 205 201 182 200 153 124 144 154 157 166 160 157 151 152 167 158 163 158 166 159 166 176 174 167 187 169 175 177 188 186 166 171 178 190 191 195 210 214 225 209 52
235 248 261 286 310 304 280 282 241 219 205 189 132 126 170 181 169 171 158 154 144 154 175 160 153 154 171 159 169 169 147 159 146 150 177 174 191 180 185 189 187 193 198 189 192 216 150 111 238
239 250 264 274 286 280 276 276 271 220 191 184 159 151 175 202 182 170 149 138 137 149 168 141 144 140 126 103 187 144 124 143 135 161 184 165 109 267 55 57 48 16 44 57 3 33 36 13 319
247 247 248 261 267 264 268 269 265 241 190 191 201 161 173 194 185 162 141 138 136 134 141 136 149 134 127 140 193 101 128 117 146 158 148 116 79 55 40 41 38 25 43 43 11 22 9 353 10
259 256 250 243 258 264 267 258 255 243 213 194 201 175 170 178 186 161 146 141 138 143 140 136 158 140 146 169 162 159 147 143 126 111 101 86 79 77 71 81 67 24 31 39 33 11 7 5 350
253 249 252 246 239 246 254 255 255 236 221 202 203 192 179 173 178 158 140 136 142 150 144 166 172 149 162 179 165 159 119 102 87 93 87 78 77 60 64 78 57 13 34 43 33 24 8 2 348
248 242 247 248 237 230 237 246 257 268 210 199 215 206 188 179 180 151 140 140 144 142 156 184 169 151 167 162 132 103 91 95 97 96 93 83 72 66 80 78 50 24 50 49 34 31 4 344 338
237 239 238 242 245 234 232 232 231 251 204 211 224 224 199 183 177 143 141 144 141 142 172 183 152 153 159 145 133 120 111 104 96 91 89 89 74 54 70 91 64 44 60 61 58 352 320 299 281
253 264 270 267 244 246 231 233 247 256 220 216 226 233 222 188 166 139 145 147 149 157 184 187 171 153 147 142 144 138 127 118 109 100 89 80 78 73 60 79 92 79 70 43 321 30 341 320 317
241 256 268 278 288 287 268 233 238 265 271 245 224 236 246 192 153 141 148 150 156 167 185 193 158 146 148 139 133 131 124 111 99 92 92 93 88 79 79 59 47 55 6 262 44 62 357 329 338
248 254 265 273 279 276 275 263 248 253 266 265 238 228 244 225 167 152 154 157 161 167 171 180 156 159 145 130 123 110 99 109 115 120 111 108 104 92 78 64 49 26 344 67 48 51 25 351 323
253 256 262 269 274 272 273 272 251 241 243 245 243 233 229 236 192 160 155 158 158 150 155 157 144 131 124 127 131 138 148 142 132 133 132 131 98 79 72 57 61 28 355 66 36 66 12 342 320
250 256 259 260 259 263 267 272 270 265 254 252 247 225 223 230 198 158 150 147 129 125 132 131 122 118 122 119 130 136 117 113 122 120 133 142 119 99 78 70 60 21 22 68 57 65 16 332 5
248 259 260 263 264 259 255 259 264 261 262 261 254 218 218 214 153 139 135 129 116 118 126 124 115 106 98 94 92 95 103 117 123 127 142 176 141 127 106 103 83 40 53 56 52 80 297 61 11
224 241 245 238 237 247 247 248 254 255 262 270 289 62 95 133 127 129 133 135 127 121 124 122 119 110 101 97 91 95 102 113 122 137 124 336 123 117 104 92 79 56 108 202 106 310 255 248 218
218 223 244 260 265 272 278 273 267 254 256 321 70 89 94 107 117 125 133 136 131 124 125 126 122 117 113 104 97 100 132 162 122 70 93 93 70 96 127 137 144 74 315 329 87 303 278 249 235
242 233 236 252 266 276 282 288 290 259 222 201 135 106 107 113 120 126 130 130 127 124 124 123 120 119 114 102 97 91 69 70 91 96 59 92 90 114 90 80 137 213 272 284 271 257 279 259 249
227 247 250 245 261 275 280 281 292 321 251 182 112 110 117 124 129 131 132 127 121 116 109 112 112 106 104 111 115 103 93 92 106 101 71 66 78 80 82 269 254 254 260 257 254 264 266 271 270
221 228 243 261 263 268 276 287 17 359 35 95 119 122 139 141 137 135 132 126 123 118 110 106 100 96 92 90 90 103 111 120 132 118 119 107 82 122 253 315 318 308 293 279 270 270 277 284 294
252 239 236 239 249 261 271 282 33 16 12 18 141 140 143 137 129 126 127 131 134 127 118 110 110 113 114 114 110 109 123 150 165 130 109 119 120 308 320 315 309 303 297 294 299 316 338 345 339